Weather History for Pittsfield, IL

Change the Weather History Date:

Saturday, December 22, 2012

  Actual Average (KUIN) Record (KUIN)
Temperature  
Mean Temperature 28 °F 28 °F  
Max Temperature 40 °F 36 °F 61 °F (1957)
Min Temperature 15 °F 20 °F -22 °F (1989)
Degree Days  
Heating Degree Days 38 37  
Month to date heating degree days 751  
Since 1 July heating degree days 1851  
Cooling Degree Days 0 0  
Month to date cooling degree days 0  
Year to date cooling degree days 1094  
Moisture  
Dew Point 20 °F    
Average Humidity 72    
Maximum Humidity 93    
Minimum Humidity 58    
Precipitation  
Precipitation 0.00 in 0.07 in 0.66 in (1988)
Month to date precipitation 1.71  
Year to date precipitation 36.79  
Sea Level Pressure  
Sea Level Pressure 30.12 in    
Wind  
Wind Speed 4 mph (SSE)    
Max Wind Speed 10 mph    
Max Gust Speed -    
Visibility 10 miles    
Events      
T = Trace of Precipitation, MM = Missing Value Source: NWS Daily Summary

Daily Weather History Graph

Daily Weather History Graph

Search for Another Location

Airport:

Trip Planner

Search our weather history database for the weather conditions in past years. The results will help you decide how hot, cold, wet, or windy it might be!

Date:

Astronomy

Dec. 22, 2012 Rise Set
Actual Time 7:21 AM CST 4:43 PM CST
Civil Twilight 6:50 AM CST 5:13 PM CST
Nautical Twilight 6:16 AM CST 5:47 PM CST
Astronomical Twilight 5:43 AM CST 6:20 PM CST
Moon 1:00 PM CST (12/22) 2:07 AM CST (12/22)
Length of Visible Light 10h 22m
Length of Day
9h 21m
Waxing Gibbous, 74% of the Moon is Illuminated
Dec 22
Waxing Gibbous
Dec 28
Full
Jan 4
Last Quarter
Jan 11
New
Jan 18
First Quarter

Hourly Weather History & Observations

Time (CST) Temp. Windchill Dew Point Humidity Pressure Visibility Wind Dir Wind Speed Gust Speed Precip Events Conditions
12:15 AM 20.3 °F 13.8 °F 14.0 °F 77% 30.28 in 10.0 mi West 4.6 mph - N/A   Clear
12:35 AM 21.0 °F 16.2 °F 14.4 °F 75% 30.28 in 10.0 mi West 3.5 mph - N/A   Clear
12:55 AM 20.5 °F 15.6 °F 14.9 °F 79% 30.28 in 10.0 mi West 3.5 mph - N/A   Clear
1:15 AM 21.0 °F - 15.3 °F 78% 30.28 in 10.0 mi Calm Calm - N/A   Clear
1:35 AM 20.8 °F 14.4 °F 15.1 °F 78% 30.28 in 10.0 mi West 4.6 mph - N/A   Clear
1:55 AM 20.8 °F 16.0 °F 14.9 °F 78% 30.28 in 10.0 mi West 3.5 mph - N/A   Clear
2:15 AM 20.1 °F - 14.5 °F 79% 30.28 in 10.0 mi Calm Calm - N/A   Clear
2:35 AM 19.8 °F 14.7 °F 14.4 °F 80% 30.28 in 10.0 mi NW 3.5 mph - N/A   Clear
2:55 AM 19.4 °F - 14.9 °F 83% 30.28 in 10.0 mi Calm Calm - N/A   Clear
3:15 AM 20.1 °F - 15.3 °F 81% 30.28 in 10.0 mi Calm Calm - N/A   Clear
3:35 AM 18.3 °F - 14.2 °F 84% 30.28 in 10.0 mi Calm Calm - N/A   Clear
3:55 AM 19.2 °F - 15.1 °F 84% 30.27 in 10.0 mi Calm Calm - N/A   Clear
4:15 AM 17.8 °F - 14.2 °F 86% 30.26 in 10.0 mi Calm Calm - N/A   Clear
4:35 AM 17.8 °F - 14.5 °F 87% 30.26 in 10.0 mi Calm Calm - N/A   Clear
4:55 AM 16.9 °F - 14.2 °F 89% 30.25 in 10.0 mi Calm Calm - N/A   Clear
5:15 AM 15.8 °F - 13.6 °F 91% 30.25 in 10.0 mi Calm Calm - N/A   Clear
5:35 AM 15.1 °F 9.4 °F 13.3 °F 93% 30.26 in 10.0 mi SSW 3.5 mph - N/A   Clear
5:55 AM 16.7 °F - 14.0 °F 89% 30.27 in 10.0 mi Calm Calm - N/A   Clear
6:15 AM 15.8 °F 10.2 °F 13.1 °F 89% 30.27 in 10.0 mi South 3.5 mph - N/A   Clear
6:35 AM 16.0 °F - 13.5 °F 90% 30.27 in 10.0 mi Calm Calm - N/A   Clear
6:55 AM 16.5 °F 9.4 °F 13.6 °F 88% 30.25 in 10.0 mi ESE 4.6 mph - N/A   Clear
7:15 AM 17.1 °F - 14.0 °F 88% 30.25 in 10.0 mi Calm Calm - N/A   Clear
7:35 AM 16.7 °F 11.2 °F 14.0 °F 89% 30.24 in 10.0 mi SE 3.5 mph - N/A   Clear
7:55 AM 15.4 °F 6.8 °F 13.1 °F 90% 30.24 in 10.0 mi South 5.8 mph - N/A   Clear
8:15 AM 19.0 °F 11.1 °F 14.5 °F 83% 30.24 in 10.0 mi SSE 5.8 mph - N/A   Clear
8:35 AM 20.8 °F 13.2 °F 15.4 °F 80% 30.23 in 10.0 mi SSE 5.8 mph - N/A   Clear
8:55 AM 22.1 °F 14.7 °F 15.8 °F 77% 30.23 in 10.0 mi SE 5.8 mph - N/A   Clear
9:15 AM 24.4 °F 17.5 °F 17.4 °F 75% 30.23 in 10.0 mi SE 5.8 mph - N/A   Clear
9:35 AM 25.5 °F 19.9 °F 17.8 °F 72% 30.23 in 10.0 mi SE 4.6 mph - N/A   Clear
9:55 AM 27.5 °F 20.2 °F 18.9 °F 70% 30.22 in 10.0 mi SE 6.9 mph - N/A   Clear
10:15 AM 28.9 °F 21.9 °F 19.0 °F 67% 30.21 in 10.0 mi SE 6.9 mph - N/A   Clear
10:35 AM 30.4 °F 22.2 °F 20.1 °F 66% 30.20 in 10.0 mi SE 9.2 mph - N/A   Clear
10:55 AM 32.0 °F 24.2 °F 20.3 °F 62% 30.18 in 10.0 mi SE 9.2 mph - N/A   Clear
11:15 AM 32.5 °F 24.8 °F 20.3 °F 61% 30.16 in 10.0 mi SE 9.2 mph - N/A   Clear
11:35 AM 33.4 °F 25.4 °F 20.8 °F 60% 30.14 in 10.0 mi SE 10.4 mph - N/A   Clear
11:55 AM 34.2 °F 28.2 °F 21.9 °F 61% 30.14 in 10.0 mi SE 6.9 mph - N/A   Clear
12:15 PM 35.1 °F 28.6 °F 21.6 °F 58% 30.12 in 10.0 mi SE 8.1 mph - N/A   Clear
12:35 PM 36.0 °F 29.0 °F 23.0 °F 59% 30.11 in 10.0 mi SSE 9.2 mph - N/A   Clear
12:55 PM 36.5 °F 30.3 °F 23.0 °F 58% 30.09 in 10.0 mi SE 8.1 mph - N/A   Clear
1:15 PM 37.4 °F 30.8 °F 24.1 °F 59% 30.08 in 10.0 mi SE 9.2 mph - N/A   Clear
1:35 PM 37.9 °F 32.7 °F 24.8 °F 59% 30.08 in 10.0 mi SE 6.9 mph - N/A   Clear
1:55 PM 38.3 °F 31.9 °F 25.7 °F 61% 30.07 in 10.0 mi SE 9.2 mph - N/A   Clear
2:15 PM 38.7 °F 32.4 °F 26.2 °F 61% 30.05 in 10.0 mi SE 9.2 mph - N/A   Clear
2:35 PM 39.2 °F 33.6 °F 25.7 °F 58% 30.05 in 10.0 mi SE 8.1 mph - N/A   Clear
2:55 PM 39.6 °F 33.5 °F 26.2 °F 59% 30.03 in 10.0 mi SE 9.2 mph - N/A   Clear
3:15 PM 39.9 °F 34.5 °F 27.0 °F 60% 30.03 in 10.0 mi SE 8.1 mph - N/A   Clear
3:35 PM 40.1 °F 35.3 °F 26.4 °F 58% 30.02 in 10.0 mi SE 6.9 mph - N/A   Clear
3:55 PM 38.7 °F 32.9 °F 27.9 °F 65% 30.01 in 10.0 mi SE 8.1 mph - N/A   Clear
4:15 PM 37.9 °F 32.1 °F 27.3 °F 66% 30.00 in 10.0 mi SE 8.1 mph - N/A   Clear
4:35 PM 37.2 °F 31.2 °F 27.0 °F 66% 30.00 in 10.0 mi SSE 8.1 mph - N/A   Clear
4:55 PM 36.5 °F 29.7 °F 27.5 °F 70% 29.99 in 10.0 mi SE 9.2 mph - N/A   Clear
5:15 PM 36.0 °F 29.6 °F 27.5 °F 71% 29.99 in 10.0 mi SE 8.1 mph - N/A   Clear
5:35 PM 35.6 °F 29.2 °F 27.0 °F 71% 29.99 in 10.0 mi SSE 8.1 mph - N/A   Clear
5:55 PM 35.1 °F 28.6 °F 26.6 °F 71% 29.98 in 10.0 mi SSE 8.1 mph - N/A   Clear
6:15 PM 34.7 °F 29.6 °F 26.2 °F 71% 29.97 in 10.0 mi SSE 5.8 mph - N/A   Clear
6:35 PM 34.7 °F 30.6 °F 25.5 °F 69% 29.97 in 10.0 mi SSE 4.6 mph - N/A   Clear
6:55 PM 34.7 °F 29.6 °F 24.8 °F 67% 29.97 in 10.0 mi SSE 5.8 mph - N/A   Clear
7:15 PM 34.0 °F 28.8 °F 24.8 °F 69% 29.96 in 10.0 mi SSE 5.8 mph - N/A   Clear
7:35 PM 34.3 °F 29.2 °F 24.6 °F 68% 29.96 in 10.0 mi SSE 5.8 mph - N/A   Clear
7:55 PM 34.2 °F 28.2 °F 24.6 °F 68% 29.95 in 10.0 mi SSE 6.9 mph - N/A   Clear
8:15 PM 34.7 °F 28.8 °F 24.4 °F 66% 29.95 in 10.0 mi SSE 6.9 mph - N/A   Clear
8:35 PM 34.2 °F 30.0 °F 24.4 °F 68% 29.95 in 10.0 mi South 4.6 mph - N/A   Clear
8:55 PM 34.5 °F 31.6 °F 23.7 °F 65% 29.94 in 10.0 mi South 3.5 mph - N/A   Clear
9:15 PM 33.8 °F - 23.4 °F 66% 29.94 in 10.0 mi Calm Calm - N/A   Clear
9:35 PM 32.5 °F - 23.4 °F 69% 29.94 in 10.0 mi Calm Calm - N/A   Clear
9:55 PM 33.8 °F 30.8 °F 23.4 °F 66% 29.93 in 10.0 mi SSW 3.5 mph - N/A   Clear
10:15 PM 35.8 °F 30.9 °F 23.9 °F 62% 29.93 in 10.0 mi SSW 5.8 mph - N/A   Clear
10:35 PM 36.9 °F 31.4 °F 23.9 °F 59% 29.94 in 10.0 mi SSW 6.9 mph - N/A   Clear
10:55 PM 36.5 °F 31.8 °F 24.3 °F 61% 29.94 in 10.0 mi SW 5.8 mph - N/A   Clear
11:15 PM 37.2 °F 33.6 °F 23.7 °F 58% 29.94 in 10.0 mi SW 4.6 mph - N/A   Clear
11:35 PM 34.2 °F - 23.2 °F 64% 29.93 in 10.0 mi Calm Calm - N/A   Clear
11:55 PM 33.8 °F 29.6 °F 23.4 °F 66% 29.93 in 10.0 mi WSW 4.6 mph - N/A   Clear